This demonstration page uses our WeatherBlox Daily Observations layout. Learn more.

Left ArrowRight Arrow

34.16533, -84.80231

Hourly Observations for June 3, 2022

Temp ( °F °C ) Dew Point ( °F °C ) Humidity (%) Winds ( mph kmh ) Pressure ( in mb ) Visibility ( mi km ) Precip ( " mm )
12:15 am 00:15 Clear 72 22 70 21 94 94 Calm 29.88 1012 10 16 0.00 0.00
12:35 am 00:35 Clear 72 22 70 21 94 94 Calm 29.88 1012 10 16 0.00 0.00
12:55 am 00:55 Partly Cloudy 72 22 70 21 94 94 Calm 29.88 1012 10 16 0.00 0.00
1:15 am 01:15 Mostly Cloudy 70 21 70 21 100 100 Calm 29.87 1012 10 16 0.00 0.00
1:35 am 01:35 Mostly Cloudy 70 21 68 20 94 94 Calm 29.87 1012 10 16 0.00 0.00
1:55 am 01:55 Mostly Cloudy 70 21 68 20 94 94 Calm 29.86 1011 10 16 0.00 0.00
2:15 am 02:15 Mostly Cloudy 70 21 68 20 94 94 Calm 29.86 1011 9 14 0.00 0.00
2:35 am 02:35 Mostly Cloudy 70 21 68 20 94 94 Calm 29.86 1011 10 16 0.00 0.00
2:55 am 02:55 Cloudy 70 21 68 20 94 94 Calm 29.86 1011 10 16 0.00 0.00
3:15 am 03:15 Cloudy 70 21 68 20 94 94 Calm 29.86 1011 10 16 0.00 0.00
3:35 am 03:35 Cloudy 68 20 68 20 100 100 W 3 6 29.85 1011 10 16 0.00 0.00
3:55 am 03:55 Cloudy 68 20 68 20 100 100 W 5 7 29.85 1011 9 14 0.00 0.00
4:15 am 04:15 Cloudy with Mist and Fog 68 20 68 20 100 100 Calm 29.85 1011 6 10 0.00 0.00
4:35 am 04:35 Cloudy 68 20 68 20 100 100 Calm 29.84 1011 9 14 0.00 0.00
4:55 am 04:55 Cloudy 68 20 68 20 100 100 Calm 29.84 1011 7 11 0.00 0.00
5:15 am 05:15 Cloudy 68 20 68 20 100 100 W 5 7 29.85 1011 9 14 0.00 0.00
5:35 am 05:35 Cloudy 68 20 68 20 100 100 W 3 6 29.85 1011 9 14 0.00 0.00
5:55 am 05:55 Cloudy 68 20 68 20 100 100 Calm 29.85 1011 10 16 0.00 0.00
6:15 am 06:15 Cloudy 68 20 68 20 100 100 Calm 29.86 1011 10 16 0.00 0.00
6:35 am 06:35 Cloudy 68 20 68 20 100 100 W 5 7 29.86 1011 10 16 0.00 0.00
6:55 am 06:55 Cloudy 68 20 68 20 100 100 VRB 5 7 29.87 1012 10 16 0.00 0.00
7:15 am 07:15 Cloudy 68 20 66 19 94 94 VRB 3 6 29.87 1012 10 16 0.00 0.00
7:35 am 07:35 Cloudy 68 20 66 19 94 94 W 6 9 29.87 1012 10 16 0.00 0.00
7:55 am 07:55 Cloudy 68 20 68 20 100 100 W 6 9 29.88 1012 10 16 0.00 0.00
8:15 am 08:15 Cloudy 68 20 68 20 100 100 W 5 7 29.88 1012 10 16 0.00 0.00
8:35 am 08:35 Cloudy 70 21 68 20 94 94 W 5 7 29.89 1012 10 16 0.00 0.00
8:55 am 08:55 Cloudy 70 21 68 20 94 94 Calm 29.89 1012 10 16 0.00 0.00
9:15 am 09:15 Cloudy 70 21 68 20 94 94 W 5 7 29.90 1013 10 16 0.00 0.00
9:35 am 09:35 Cloudy 72 22 68 20 88 88 VRB 3 6 29.89 1012 10 16 0.00 0.00
9:55 am 09:55 Cloudy 72 22 68 20 88 88 VRB 5 7 29.89 1012 10 16 0.00 0.00
10:15 am 10:15 Cloudy 72 22 68 20 88 88 VRB 6 9 29.89 1012 10 16 0.00 0.00
10:35 am 10:35 Cloudy 73 23 68 20 83 83 VRB 6 9 29.89 1012 10 16 0.00 0.00
10:55 am 10:55 Cloudy 73 23 68 20 83 83 VRB 3 6 29.88 1012 10 16 0.00 0.00
11:15 am 11:15 Cloudy 75 24 68 20 78 78 VRB 5 7 29.88 1012 10 16 0.00 0.00
11:35 am 11:35 Mostly Cloudy 75 24 68 20 78 78 VRB 3 6 29.89 1012 10 16 0.00 0.00
11:55 am 11:55 Cloudy 77 25 70 21 79 79 W 3 6 29.89 1012 10 16 0.00 0.00
12:15 pm 12:15 undefined N/A N/A N/A undefined N/A N/A N/A 0.00 0.00
12:35 pm 12:35 undefined N/A N/A N/A undefined N/A N/A N/A 0.00 0.00
12:55 pm 12:55 undefined N/A N/A N/A undefined N/A N/A N/A 0.00 0.00
1:15 pm 13:15 undefined N/A N/A N/A undefined N/A N/A N/A 0.00 0.00
1:30 pm 13:30 undefined N/A N/A N/A undefined N/A N/A N/A 0.00 0.00
1:55 pm 13:55 undefined N/A N/A N/A undefined N/A N/A N/A 0.00 0.00
2:15 pm 14:15 undefined N/A N/A N/A undefined N/A N/A N/A 0.00 0.00
2:35 pm 14:35 undefined N/A N/A N/A undefined N/A N/A N/A 0.00 0.00
2:55 pm 14:55 undefined N/A N/A N/A undefined N/A N/A N/A 0.00 0.00
3:15 pm 15:15 undefined N/A N/A N/A undefined N/A N/A N/A 0.00 0.00
3:35 pm 15:35 undefined N/A N/A N/A undefined N/A N/A N/A 0.00 0.00
3:55 pm 15:55 undefined N/A N/A N/A undefined N/A N/A N/A 0.00 0.00
4:15 pm 16:15 undefined N/A N/A N/A undefined N/A N/A N/A 0.00 0.00
4:35 pm 16:35 undefined N/A N/A N/A undefined N/A N/A N/A 0.00 0.00
4:55 pm 16:55 undefined N/A N/A N/A undefined N/A N/A N/A 0.00 0.00
5:15 pm 17:15 undefined N/A N/A N/A undefined N/A N/A N/A 0.00 0.00
5:35 pm 17:35 undefined N/A N/A N/A undefined N/A N/A N/A 0.00 0.00
5:55 pm 17:55 undefined N/A N/A N/A undefined N/A N/A N/A 0.00 0.00
6:15 pm 18:15 undefined N/A N/A N/A undefined N/A N/A N/A 0.00 0.00
6:35 pm 18:35 undefined N/A N/A N/A undefined N/A N/A N/A 0.00 0.00
6:55 pm 18:55 undefined N/A N/A N/A undefined N/A N/A N/A 0.00 0.00
7:15 pm 19:15 undefined N/A N/A N/A undefined N/A N/A N/A 0.00 0.00
7:35 pm 19:35 undefined N/A N/A N/A undefined N/A N/A N/A 0.00 0.00
7:55 pm 19:55 undefined N/A N/A N/A undefined N/A N/A N/A 0.00 0.00
8:15 pm 20:15 undefined N/A N/A N/A undefined N/A N/A N/A 0.00 0.00
8:35 pm 20:35 undefined N/A N/A N/A undefined N/A N/A N/A 0.00 0.00
8:55 pm 20:55 undefined N/A N/A N/A undefined N/A N/A N/A 0.00 0.00
9:15 pm 21:15 undefined N/A N/A N/A undefined N/A N/A N/A 0.00 0.00
9:35 pm 21:35 undefined N/A N/A N/A undefined N/A N/A N/A 0.00 0.00
9:55 pm 21:55 undefined N/A N/A N/A undefined N/A N/A N/A 0.00 0.00
10:15 pm 22:15 undefined N/A N/A N/A undefined N/A N/A N/A 0.00 0.00
10:35 pm 22:35 undefined N/A N/A N/A undefined N/A N/A N/A 0.00 0.00
10:55 pm 22:55 undefined N/A N/A N/A undefined N/A N/A N/A 0.00 0.00
11:15 pm 23:15 undefined N/A N/A N/A undefined N/A N/A N/A 0.00 0.00
11:35 pm 23:35 undefined N/A N/A N/A undefined N/A N/A N/A 0.00 0.00
11:55 pm 23:55 undefined N/A N/A N/A undefined N/A N/A N/A 0.00 0.00

Powered by AerisWeather